This is the latest recevied weather packets stored in our database for station/object K0CVS. If no packets are shown the sender has not sent any weather packets the latest 10 day(s).
| Time | Temp. | Humidity | Pressure | Rain* | Wind** | Luminosity | Snow |
|---|---|---|---|---|---|---|---|
| 1777830306 | 24.44° C | 40% | 1012.4 hPa | 0 mm | - | 749 W/m² | - |
| 1777830002 | 24.44° C | 39% | 1012.5 hPa | 0 mm | - | 744 W/m² | - |
| 1777829697 | 24.44° C | 38% | 1012.4 hPa | 0 mm | - | 743 W/m² | - |
| 1777829394 | 23.89° C | 40% | 1012.5 hPa | 0 mm | - | 739 W/m² | - |
| 1777829092 | 23.89° C | 41% | 1012.6 hPa | 0 mm | - | 736 W/m² | - |
| 1777828788 | 23.33° C | 42% | 1012.6 hPa | 0 mm | - | 729 W/m² | - |
| 1777828485 | 23.33° C | 41% | 1012.6 hPa | 0 mm | - | 725 W/m² | - |
| 1777828183 | 23.33° C | 41% | 1012.9 hPa | 0 mm | - | 719 W/m² | - |
| 1777827878 | 23.33° C | 41% | 1013.2 hPa | 0 mm | - | 705 W/m² | - |
| 1777827576 | 23.33° C | 42% | 1012.9 hPa | 0 mm | - | 696 W/m² | - |
| 1777827273 | 23.33° C | 41% | 1013 hPa | 0 mm | - | 700 W/m² | - |
| 1777826969 | 22.78° C | 41% | 1013.4 hPa | 0 mm | - | 690 W/m² | - |
| 1777826667 | 22.78° C | 43% | 1013.4 hPa | 0 mm | - | 681 W/m² | - |
| 1777826363 | 22.22° C | 43% | 1013.6 hPa | 0 mm | - | 674 W/m² | - |
| 1777826060 | 22.22° C | 43% | 1013.6 hPa | 0 mm | - | 667 W/m² | - |
| 1777825757 | 21.67° C | 42% | 1013.6 hPa | 0 mm | - | 656 W/m² | - |
| 1777825455 | 21.67° C | 42% | 1013.4 hPa | 0 mm | - | 651 W/m² | - |
| 1777825152 | 21.67° C | 45% | 1013.7 hPa | 0 mm | - | 639 W/m² | - |
| 1777824848 | 21.11° C | 45% | 1013.6 hPa | 0 mm | - | 616 W/m² | - |
| 1777824545 | 20.56° C | 45% | 1013.4 hPa | 0 mm | - | 130 W/m² | - |
| 1777824241 | 20.56° C | 45% | 1013.5 hPa | 0 mm | - | 72 W/m² | - |
| 1777823937 | 20.56° C | 45% | 1013.4 hPa | 0 mm | - | 55 W/m² | - |
| 1777823634 | 20.56° C | 45% | 1013.5 hPa | 0 mm | - | 55 W/m² | - |
| 1777823331 | 20.56° C | 46% | 1013.6 hPa | 0 mm | - | 65 W/m² | - |
| 1777823029 | 20° C | 47% | 1013.4 hPa | 0 mm | - | 55 W/m² | - |
* Rain latest hour (hover to see other rain measurements)
** Current wind speed in m/s (hover to see current wind gust speed)